Weather History for KNQX - December, 2012

Change the Weather History Date:

Wednesday, December 5, 2012

  Actual Average (KEYW) Record (KEYW)
Temperature  
Mean Temperature 73 °F 73 °F  
Max Temperature 77 °F 77 °F 86 °F (1994)
Min Temperature 69 °F 69 °F 45 °F (1876)
Degree Days  
Heating Degree Days 0 0  
Month to date heating degree days 0  
Since 1 July heating degree days 1  
Cooling Degree Days 8 8  
Month to date cooling degree days 42  
Year to date cooling degree days 4575  
Growing Degree Days 23 (Base 50)    
Moisture  
Dew Point 65 °F    
Average Humidity 77    
Maximum Humidity 88    
Minimum Humidity 62    
Precipitation  
Precipitation 0.11 in 0.08 in 0.49 in (2012)
Month to date precipitation 0.41  
Year to date precipitation 38.02  
Snow  
Snow 0.00 in - - ()
Month to date snowfall  
Since 1 July snowfall  
Snow Depth -    
Sea Level Pressure  
Sea Level Pressure 30.06 in    
Wind  
Wind Speed 7 mph (NE)    
Max Wind Speed 10 mph    
Max Gust Speed 16 mph    
Visibility 10 miles    
Events Rain    
T = Trace of Precipitation, MM = Missing Value Source: NWS Daily Summary

Daily Weather History Graph

Daily Weather History Graph

Search for Another Location

Airport or City:

Trip Planner

Search our weather history database for the weather conditions in past years. The results will help you decide how hot, cold, wet, or windy it might be!

Date:

Astronomy

Dec. 05, 2012 Rise Set
Actual Time 6:57 AM EST 5:38 PM EST
Civil Twilight 6:32 AM EST 6:02 PM EST
Nautical Twilight 6:04 AM EST 6:31 PM EST
Astronomical Twilight 5:36 AM EST 6:58 PM EST
Moon 11:54 PM EST (12/5) 11:48 AM EST (12/5)
Length of Visible Light 11h 30m
Length of Day
10h 41m
Waning Gibbous, 60% of the Moon is Illuminated
Dec 5
Waning Gibbous
Dec 6
Last Quarter
Dec 13
New
Dec 20
First Quarter
Dec 28
Full

Hourly Weather History & Observations

Time (EST) Temp. Dew Point Humidity Pressure Visibility Wind Dir Wind Speed Gust Speed Precip Events Conditions
12:53 AM 71.1 °F 64.9 °F 81% 30.12 in 10.0 mi NE 6.9 mph - N/A   Overcast
1:53 AM 72.0 °F 64.9 °F 78% 30.11 in 10.0 mi NE 9.2 mph - N/A   Overcast
2:53 AM 72.0 °F 64.9 °F 78% 30.09 in 10.0 mi NE 6.9 mph 16.1 mph N/A   Overcast
3:53 AM 71.1 °F 64.0 °F 78% 30.08 in 10.0 mi NE 8.1 mph - N/A   Overcast
4:53 AM 70.0 °F 66.0 °F 87% 30.07 in 10.0 mi NE 9.2 mph - 0.03 in Rain Light Rain
5:53 AM 70.0 °F 66.0 °F 87% 30.07 in 6.0 mi NE 6.9 mph - 0.02 in Rain Rain
6:53 AM 70.0 °F 66.0 °F 87% 30.09 in 7.0 mi NE 5.8 mph - 0.04 in Rain Light Rain
7:19 AM 69.8 °F 66.2 °F 88% 30.10 in 8.0 mi NNE 5.8 mph - 0.02 in   Overcast
7:53 AM 70.0 °F 66.0 °F 87% 30.11 in 9.0 mi NE 6.9 mph - 0.02 in   Overcast
9:53 AM 73.0 °F 66.9 °F 81% 30.12 in 10.0 mi NE 8.1 mph - N/A   Overcast
10:53 AM 73.9 °F 66.0 °F 76% 30.11 in 10.0 mi ENE 8.1 mph - N/A   Overcast
11:53 AM 77.0 °F 64.0 °F 64% 30.09 in 10.0 mi ENE 10.4 mph - N/A   Overcast
12:53 PM 77.0 °F 63.0 °F 62% 30.06 in 10.0 mi East 10.4 mph - N/A   Overcast
1:53 PM 75.9 °F 63.0 °F 64% 30.04 in 10.0 mi East 8.1 mph - N/A   Overcast
2:53 PM 75.0 °F 63.0 °F 66% 30.02 in 10.0 mi ENE 4.6 mph - N/A   Overcast
3:53 PM 73.9 °F 66.9 °F 79% 30.02 in 10.0 mi NE 6.9 mph - N/A   Overcast
4:53 PM 73.0 °F 66.0 °F 79% 30.02 in 10.0 mi NE 6.9 mph - N/A   Overcast
5:53 PM 73.0 °F 66.0 °F 79% 30.01 in 10.0 mi NE 5.8 mph - N/A   Overcast
6:53 PM 73.0 °F 64.9 °F 76% 30.02 in 10.0 mi ENE 4.6 mph - N/A   Overcast
7:53 PM 73.0 °F 64.0 °F 73% 30.02 in 10.0 mi ENE 5.8 mph - N/A   Overcast
8:53 PM 73.0 °F 64.9 °F 76% 30.02 in 10.0 mi ENE 8.1 mph - N/A   Overcast
9:53 PM 73.0 °F 64.9 °F 76% 30.02 in 10.0 mi ENE 6.9 mph - N/A   Overcast
10:53 PM 72.0 °F 64.0 °F 76% 30.02 in 10.0 mi NE 5.8 mph - N/A   Overcast
11:53 PM 71.1 °F 64.9 °F 81% 30.00 in 10.0 mi NE 3.5 mph - N/A   Mostly Cloudy